SCP
0 0 0 0 0 0 0 0 0 0 0 0 0 0 0 0 0 0 0 0 0 0 0 0 0 0 0 0 0 0 0 0 0 0 0 0 0 0 0 0 0 0 0
0 0 0 0 0 0 0 0 0 0 0 0 0 0 0 0 0 0 0 0 0 0 0 0 0 0 0 0 0 0 0 0 0 0 0 0 0 0 0 0 0 0 0
0 0 0 0 0 0 0 0 0 0 0 0 0 0 0 0 0 0 0 0 0 0 0 0 0 0 0 0 0 0 0 0 0 0 -0 -0 0 0 0 0 0 0 0
0 0 0 0 0 0 0 0 0 0 0 0 0 0 0 0 0 0 0 0 0 0 0 0 0 0 0 0 0 0 0 0 0 -0 0 0 0 -0 0 0 0 0 0
0 0 0 0 0 0 0 0 0 0 0 0 0 0 0 0 0 0 0 0 0 0 0 0 0 0 0 0 0 0 0 0 0 0 0 0 0 0 -0 -0 0 0 0
0 0 0 0 0 0 0 0 0 0 0 0 0 0 0 0 0 0 0 0 0 0 0 0 0 0 0 0 0 0 0 0 0 0 0 0 -0 -0 -0 -0 0 -0 -0
0 0 0 0 0 0 0 0 0 0 0 0 0 0 0 0 0 0 0 0 0 0 0 0 0 0 0 0 0 0 0 0 0 0 0 0 0 0 -0 -0 -0 -0 -0
0 0 0 0 0 0 0 0 0 0 0 0 0 0 0 0 0 0 0 0 0 0 0 0 0 0 0 0 0 0 0 0 0 0 0 0 0 0 -0 -0 -0 -0 -0
0 0 0 0 0 0 0 0 0 0 0 0 0 0 0 0 0 0 0 0 0 0 0 0 0 0 0 0 0 0 0 0 0 0 0 0 -0 -0 -0 -0 -0 -0 -0
0 0 0 0 0 0 0 0 0 0 0 0 0 0 0 0 0 0 0 0 0 0 0 0 0 0 0 0 0 0 0 0 0 0 0 0 0 0 -0 -0 -0 -0 -0
0 0 0 0 0 0 0 0 0 0 0 0 0 0 0 0 0 0 0 0 0 0 0 0 0 0 0 0 0 0 0 0 0 0 0 0 0 0 -0 -0 -0 -0 -0
0 0 0 0 0 0 0 0 0 0 0 0 0 0 0 0 0 0 0 0 0 0 0 0 0 0 0 0 0 0 0 0 0 0 0 0 -0 -0 -0 -0 -0 -0 -0
0 0 0 0 0 0 0 0 0 0 0 0 0 0 0 0 0 0 0 0 0 0 0 0 0 0 0 0 0 0 0 0 0 0 0 0 0 0 -0 -0 -0 -0 -0
0 0 0 0 0 0 0 0 0 0 0 0 0 0 0 0 0 0 0 0 0 0 0 0 0 0 0 0 0 0 0 0 0 0 0 0 0 0 0 -0 -0 -0 -0
0 0 0 0 0 0 0 0 0 0 0 0 0 0 0 0 0 0 0 0 0 0 0 0 0 0 0 0 0 0 0 0 0 0 0 0 0 -0 -0 -0 -0 -0 -0
0 0 0 0 0 0 0 0 0 0 0 0 0 0 0 0 0 0 0 0 0 0 0 0 0 0 0 0 0 0 0 0 0 0 0 0 0 0 0 0 -0 -0 -0
0 0 0 0 0 0 0 0 0 0 0 0 0 0 0 0 0 0 0 0 0 0 0 0 0 0 0 0 0 0 0 0 0 0 0 0 0 0 0 0 0 0 -0
0 0 0 0 0 0 0 0 0 0 0 0 0 0 0 0 0 0 0 0 0 0 0 0 0 0 0 0 0 0 0 0 0 0 0 0 0 0 0 0 0 0 0
0 0 0 0 0 0 0 0 0 0 0 0 0 0 0 0 0 0 0 0 0 0 0 0 0 0 0 0 0 0 0 0 0 0 0 0 0 0 0 0 0 0 0
0 0 0 0 0 0 0 0 0 0 0 0 0 0 0 0 0 0 0 0 0 0 0 0 0 0 0 0 0 0 0 0 0 0 0 0 0 0 0 0 0 0 0
0 0 0 0 0 0 0 0 0 0 0 0 0 0 0 0 0 0 0 0 0 0 0 0 0 0 0 0 0 0 0 0 0 0 0 0 0 0 0 0 0 0 0
0 0 0 0 0 0 0 0 0 0 0 0 0 0 0 0 0 0 0 0 0 0 0 0 0 0 0 0 0 0 0 0 0 0 0 0 0 0 0 0 0 0 0
0 0 0 0 0 0 0 0 0 0 0 0 0 0 0 0 0 0 0 0 0 0 0 0 0 0 0 0 0 0 0 0 0 0 0 0 0 0 0 0 0 0 0
0 0 0 0 0 0 0 0 0 0 0 0 0 0 0 0 0 0 0 0 0 0 0 0 0 0 0 0 0 0 0 0 0 0 0 0 0 0 0 0 0 0 0
0 0 0 0 0 0 0 0 0 0 0 0 0 0 0 0 0 0 0 0 0 0 0 0 0 0 0 0 0 0 0 0 0 0 0 0 0 0 0 0 0 0 0
0 0 0 0 0 0 0 0 0 0 0 0 0 0 0 0 0 0 0 0 0 0 0 0 0 0 0 0 0 0 0 0 0 0 0 0 0 0 0 0 0 0 0
Wind_Speed_500mb
16 19 20 20 20 17 16 15 13 11 7 6 3 1 6 11 12 13 17 19 21 23 24 27 27 30 34 36 38 40 43 46 50 31 28 19 13 50 51 52 59 64 65
14 17 18 18 19 17 15 12 10 8 10 10 8 9 8 15 14 17 17 18 16 19 20 22 25 26 28 31 35 39 39 40 50 54 26 22 16 51 38 49 56 59 59
21 16 15 16 18 18 16 12 11 11 12 14 13 11 10 14 14 13 12 12 13 14 14 16 18 20 23 30 32 35 37 36 38 42 38 20 22 48 35 53 56 61 59
29 23 17 14 14 16 17 15 13 13 13 13 14 14 14 14 15 10 10 9 10 12 15 18 19 21 21 23 30 31 33 33 38 35 34 29 32 32 30 56 62 64 56
35 30 24 18 14 15 15 15 15 14 13 14 15 15 17 16 13 8 4 3 7 10 11 13 15 17 21 25 24 25 28 32 32 35 34 32 29 36 30 36 70 59 60
40 35 29 24 21 17 17 19 16 12 14 16 17 16 16 17 15 12 9 7 7 9 11 13 15 17 17 19 23 26 24 27 28 30 36 40 43 45 45 47 64 54 61
43 40 34 26 24 22 23 21 17 16 18 17 13 15 16 16 14 12 11 9 10 13 17 19 19 21 23 24 24 23 25 29 32 35 39 42 44 45 47 50 52 44 59
41 42 37 32 25 27 25 22 21 22 18 16 14 15 16 16 17 19 21 22 24 27 28 29 30 31 30 31 32 34 37 38 39 40 41 42 45 45 47 48 49 57 49
44 41 38 34 32 31 30 29 27 23 21 19 19 22 25 27 29 28 26 26 27 28 28 28 29 30 30 31 31 33 35 35 37 40 43 46 49 51 52 52 48 44 34
40 40 39 37 35 34 34 32 29 27 27 28 29 30 30 27 26 27 27 27 27 27 26 26 26 26 27 28 29 32 35 35 38 41 43 45 48 49 51 54 50 46 36
44 43 40 39 38 37 36 34 34 34 35 34 32 30 29 28 27 26 27 26 26 24 23 23 23 24 26 28 30 31 33 35 38 40 42 45 50 53 54 54 53 52 49
46 46 46 43 43 42 41 41 42 40 36 33 31 31 30 29 27 26 26 25 22 20 20 21 21 22 24 26 29 32 34 37 39 43 45 51 55 60 60 59 61 61 59
48 49 50 50 49 48 49 47 44 40 37 35 32 31 29 27 26 25 24 21 19 19 18 19 19 21 23 26 29 32 34 37 40 43 49 56 60 63 63 65 67 67 66
55 55 56 56 55 54 52 50 46 42 39 37 34 31 30 28 26 24 21 19 17 15 16 17 18 20 21 24 28 31 32 36 41 46 50 55 59 60 62 63 65 66 67
59 63 63 62 61 60 57 52 48 45 42 38 35 32 31 28 26 23 20 17 14 13 14 14 14 18 21 27 26 28 33 38 42 46 47 51 53 61 62 62 63 65 66
67 68 67 69 70 67 62 56 52 49 44 39 36 34 32 29 26 22 19 15 12 11 10 10 13 17 21 23 25 29 34 37 40 42 42 44 52 50 55 58 60 63 62
77 76 76 78 77 72 65 61 56 50 46 41 38 35 32 28 25 21 18 15 12 9 6 8 10 13 17 21 27 30 33 35 37 39 39 42 47 49 51 53 55 55 57
86 87 89 85 81 74 69 62 57 53 48 44 40 36 33 29 26 22 18 15 11 6 3 4 8 11 14 20 25 30 30 31 32 34 38 39 42 47 51 52 53 54 54
98 97 94 89 84 79 72 66 62 56 50 45 41 38 35 31 27 23 19 15 11 7 5 4 6 10 14 19 24 26 24 24 25 30 33 37 40 45 50 52 55 56 55
93 100 97 92 87 83 77 71 65 58 52 47 43 40 36 32 28 24 20 16 13 10 8 7 9 11 15 15 19 19 17 18 21 24 27 34 40 44 49 52 55 58 61
96 97 97 98 92 87 80 74 66 59 52 47 45 42 38 33 29 26 23 19 15 13 13 14 14 11 11 11 12 11 11 14 19 23 28 33 38 43 48 50 54 57 63
99 98 101 99 95 89 83 77 68 59 53 48 46 42 38 34 31 28 25 21 18 18 19 19 17 14 10 5 3 5 9 15 20 25 31 36 41 45 48 52 55 58 62
101 97 100 102 96 91 84 78 70 61 54 50 45 41 38 36 33 30 27 24 23 23 24 24 20 17 12 6 4 6 11 17 23 27 33 39 44 48 51 54 57 61 64
98 100 103 101 99 93 86 75 68 60 53 48 45 43 41 39 36 33 31 29 28 28 29 28 25 21 16 12 11 11 15 20 25 31 37 43 48 51 56 60 62 64 66
97 103 105 102 100 95 88 79 70 61 55 50 47 46 45 42 38 37 34 32 32 31 31 31 28 24 20 17 16 17 20 27 32 37 42 47 52 56 58 60 63 66 68
97 100 100 99 97 92 87 81 74 65 57 53 51 49 46 43 41 41 38 36 35 34 35 34 32 27 23 21 21 22 25 30 36 41 46 51 56 60 63 66 68 69 72
Wind_Direction_500mb
125 130 137 149 152 164 181 200 203 213 218 228 197 40 74 77 76 59 58 59 55 49 46 45 41 39 37 32 30 34 32 23 20 17 20 19 14 13 20 19 24 25 25
155 153 155 159 164 172 178 184 189 199 202 183 175 159 115 95 87 76 64 57 47 44 39 36 34 31 31 31 29 27 31 29 24 24 13 9 12 2 11 15 17 19 17
190 175 171 175 176 181 188 187 186 176 170 164 156 139 124 112 103 82 70 54 39 26 22 28 28 25 25 33 30 28 28 27 25 31 37 8 359 360 353 6 2 10 13
195 195 194 191 193 192 182 180 178 176 176 174 177 182 174 136 112 96 72 47 26 25 32 37 38 35 31 31 31 32 31 28 30 34 38 34 30 356 332 353 0 7 11
193 194 198 204 201 185 173 176 185 186 186 185 163 152 139 134 130 123 108 73 35 39 44 43 42 40 38 38 32 30 33 37 41 40 28 19 19 17 5 345 346 359 4
189 190 192 196 198 185 181 186 185 187 181 166 153 143 139 140 140 145 151 140 108 84 64 52 48 47 45 40 39 38 32 34 34 29 27 25 25 15 15 355 352 355 1
187 186 192 194 202 190 192 185 182 186 172 164 148 140 142 140 154 156 150 127 106 87 75 67 64 61 54 48 45 40 38 36 35 35 33 28 26 22 15 9 1 348 356
188 188 188 194 195 197 194 189 189 188 177 170 163 149 143 143 139 128 117 113 102 90 81 75 71 69 65 61 57 53 51 49 44 42 36 32 29 24 20 17 10 358 354
188 189 190 193 195 197 191 189 188 185 175 163 150 139 132 127 122 116 111 104 96 90 84 78 74 71 67 61 56 52 48 44 42 40 33 30 29 22 19 18 17 16 355
184 188 193 197 197 195 187 181 179 173 160 151 141 136 131 127 121 117 113 108 101 96 92 84 75 68 62 59 56 54 51 46 41 36 30 24 22 16 12 12 12 11 4
185 189 193 191 191 186 181 175 170 164 153 148 145 142 137 131 128 125 118 113 108 103 93 83 75 70 64 59 55 51 46 38 34 29 24 20 19 16 15 13 12 8 2
189 191 192 191 186 181 174 169 164 160 156 155 150 146 142 139 137 131 124 117 112 103 92 84 77 70 66 58 49 41 37 33 30 30 29 27 23 21 20 16 12 7 3
187 190 190 188 184 177 172 169 166 165 163 159 156 153 148 146 144 137 129 124 116 107 96 87 80 68 57 47 43 41 39 38 37 36 32 30 27 25 22 17 13 8 3
190 191 189 188 183 179 174 173 171 169 167 163 162 160 156 154 149 144 138 130 120 109 96 83 71 63 54 50 50 49 48 46 43 39 36 33 32 30 25 20 15 9 5
192 194 192 188 184 181 179 177 175 173 172 170 169 168 164 161 158 152 144 137 126 109 91 76 61 53 51 53 58 57 54 50 46 42 41 37 37 35 29 22 18 12 8
197 197 194 190 187 185 182 180 179 177 175 175 175 174 171 167 162 158 154 145 133 114 95 72 55 54 58 67 67 64 58 55 53 49 45 40 38 32 29 26 22 16 9
195 194 194 192 190 187 185 183 181 180 179 180 180 179 175 172 171 169 164 158 149 132 102 70 68 69 72 76 74 71 64 60 57 51 45 40 33 25 23 20 17 12 9
197 196 196 193 191 188 186 185 184 184 184 183 184 182 180 181 181 178 173 172 167 152 126 99 92 88 92 93 83 77 69 61 54 46 39 33 27 19 15 11 9 6 2
204 201 197 192 189 190 188 187 187 188 187 187 188 188 188 188 187 185 186 187 190 197 195 160 124 122 115 107 93 82 73 60 47 39 31 24 19 10 7 4 360 358 355
207 201 197 193 192 190 190 190 191 190 190 190 192 192 193 192 193 194 197 204 210 214 207 187 172 157 130 113 98 86 67 47 34 26 18 14 9 2 359 357 353 350 348
203 201 197 195 193 192 191 193 193 193 192 193 195 196 196 196 198 202 207 213 219 217 210 201 191 173 148 123 96 75 51 28 17 7 3 3 356 354 351 349 347 345 342
199 200 196 194 195 194 194 195 195 194 194 197 199 199 199 202 206 209 213 220 224 221 213 206 201 191 181 157 105 40 9 2 356 352 350 348 347 345 343 341 340 338 337
196 196 196 194 195 196 197 197 196 196 197 200 201 202 205 209 212 215 219 226 228 226 219 213 211 212 215 224 272 313 340 342 343 341 340 339 337 336 335 334 333 335 336
196 193 195 196 195 197 198 200 199 198 201 203 205 207 212 215 217 220 224 231 233 230 223 218 220 226 233 250 277 308 323 329 330 332 332 331 330 329 330 332 333 332 333
194 194 195 197 198 197 197 197 199 202 204 205 209 213 216 219 222 225 230 235 237 234 229 227 231 236 246 261 285 304 318 321 323 326 325 325 326 327 328 328 328 329 329
194 194 197 199 200 199 199 198 200 204 207 210 213 217 221 223 227 230 234 240 242 240 237 236 242 247 253 265 281 296 305 309 314 318 321 323 323 323 324 325 325 326 326
Wind_Speed_850mb
16 19 20 20 20 17 16 15 13 11 7 6 3 1 6 11 12 13 17 19 21 23 24 27 27 30 34 36 38 40 43 46 50 31 28 19 13 50 51 52 59 64 65
14 17 18 18 19 17 15 12 10 8 10 10 8 9 8 15 14 17 17 18 16 19 20 22 25 26 28 31 35 39 39 40 50 54 26 22 16 51 38 49 56 59 59
21 16 15 16 18 18 16 12 11 11 12 14 13 11 10 14 14 13 12 12 13 14 14 16 18 20 23 30 32 35 37 36 38 42 38 20 22 48 35 53 56 61 59
29 23 17 14 14 16 17 15 13 13 13 13 14 14 14 14 15 10 10 9 10 12 15 18 19 21 21 23 30 31 33 33 38 35 34 29 32 32 30 56 62 64 56
35 30 24 18 14 15 15 15 15 14 13 14 15 15 17 16 13 8 4 3 7 10 11 13 15 17 21 25 24 25 28 32 32 35 34 32 29 36 30 36 70 59 60
40 35 29 24 21 17 17 19 16 12 14 16 17 16 16 17 15 12 9 7 7 9 11 13 15 17 17 19 23 26 24 27 28 30 36 40 43 45 45 47 64 54 61
43 40 34 26 24 22 23 21 17 16 18 17 13 15 16 16 14 12 11 9 10 13 17 19 19 21 23 24 24 23 25 29 32 35 39 42 44 45 47 50 52 44 59
41 42 37 32 25 27 25 22 21 22 18 16 14 15 16 16 17 19 21 22 24 27 28 29 30 31 30 31 32 34 37 38 39 40 41 42 45 45 47 48 49 57 49
44 41 38 34 32 31 30 29 27 23 21 19 19 22 25 27 29 28 26 26 27 28 28 28 29 30 30 31 31 33 35 35 37 40 43 46 49 51 52 52 48 44 34
40 40 39 37 35 34 34 32 29 27 27 28 29 30 30 27 26 27 27 27 27 27 26 26 26 26 27 28 29 32 35 35 38 41 43 45 48 49 51 54 50 46 36
44 43 40 39 38 37 36 34 34 34 35 34 32 30 29 28 27 26 27 26 26 24 23 23 23 24 26 28 30 31 33 35 38 40 42 45 50 53 54 54 53 52 49
46 46 46 43 43 42 41 41 42 40 36 33 31 31 30 29 27 26 26 25 22 20 20 21 21 22 24 26 29 32 34 37 39 43 45 51 55 60 60 59 61 61 59
48 49 50 50 49 48 49 47 44 40 37 35 32 31 29 27 26 25 24 21 19 19 18 19 19 21 23 26 29 32 34 37 40 43 49 56 60 63 63 65 67 67 66
55 55 56 56 55 54 52 50 46 42 39 37 34 31 30 28 26 24 21 19 17 15 16 17 18 20 21 24 28 31 32 36 41 46 50 55 59 60 62 63 65 66 67
59 63 63 62 61 60 57 52 48 45 42 38 35 32 31 28 26 23 20 17 14 13 14 14 14 18 21 27 26 28 33 38 42 46 47 51 53 61 62 62 63 65 66
67 68 67 69 70 67 62 56 52 49 44 39 36 34 32 29 26 22 19 15 12 11 10 10 13 17 21 23 25 29 34 37 40 42 42 44 52 50 55 58 60 63 62
77 76 76 78 77 72 65 61 56 50 46 41 38 35 32 28 25 21 18 15 12 9 6 8 10 13 17 21 27 30 33 35 37 39 39 42 47 49 51 53 55 55 57
86 87 89 85 81 74 69 62 57 53 48 44 40 36 33 29 26 22 18 15 11 6 3 4 8 11 14 20 25 30 30 31 32 34 38 39 42 47 51 52 53 54 54
98 97 94 89 84 79 72 66 62 56 50 45 41 38 35 31 27 23 19 15 11 7 5 4 6 10 14 19 24 26 24 24 25 30 33 37 40 45 50 52 55 56 55
93 100 97 92 87 83 77 71 65 58 52 47 43 40 36 32 28 24 20 16 13 10 8 7 9 11 15 15 19 19 17 18 21 24 27 34 40 44 49 52 55 58 61
96 97 97 98 92 87 80 74 66 59 52 47 45 42 38 33 29 26 23 19 15 13 13 14 14 11 11 11 12 11 11 14 19 23 28 33 38 43 48 50 54 57 63
99 98 101 99 95 89 83 77 68 59 53 48 46 42 38 34 31 28 25 21 18 18 19 19 17 14 10 5 3 5 9 15 20 25 31 36 41 45 48 52 55 58 62
101 97 100 102 96 91 84 78 70 61 54 50 45 41 38 36 33 30 27 24 23 23 24 24 20 17 12 6 4 6 11 17 23 27 33 39 44 48 51 54 57 61 64
98 100 103 101 99 93 86 75 68 60 53 48 45 43 41 39 36 33 31 29 28 28 29 28 25 21 16 12 11 11 15 20 25 31 37 43 48 51 56 60 62 64 66
97 103 105 102 100 95 88 79 70 61 55 50 47 46 45 42 38 37 34 32 32 31 31 31 28 24 20 17 16 17 20 27 32 37 42 47 52 56 58 60 63 66 68
97 100 100 99 97 92 87 81 74 65 57 53 51 49 46 43 41 41 38 36 35 34 35 34 32 27 23 21 21 22 25 30 36 41 46 51 56 60 63 66 68 69 72
Wind_Direction_850mb
125 130 137 149 152 164 181 200 203 213 218 228 197 40 74 77 76 59 58 59 55 49 46 45 41 39 37 32 30 34 32 23 20 17 20 19 14 13 20 19 24 25 25
155 153 155 159 164 172 178 184 189 199 202 183 175 159 115 95 87 76 64 57 47 44 39 36 34 31 31 31 29 27 31 29 24 24 13 9 12 2 11 15 17 19 17
190 175 171 175 176 181 188 187 186 176 170 164 156 139 124 112 103 82 70 54 39 26 22 28 28 25 25 33 30 28 28 27 25 31 37 8 359 360 353 6 2 10 13
195 195 194 191 193 192 182 180 178 176 176 174 177 182 174 136 112 96 72 47 26 25 32 37 38 35 31 31 31 32 31 28 30 34 38 34 30 356 332 353 0 7 11
193 194 198 204 201 185 173 176 185 186 186 185 163 152 139 134 130 123 108 73 35 39 44 43 42 40 38 38 32 30 33 37 41 40 28 19 19 17 5 345 346 359 4
189 190 192 196 198 185 181 186 185 187 181 166 153 143 139 140 140 145 151 140 108 84 64 52 48 47 45 40 39 38 32 34 34 29 27 25 25 15 15 355 352 355 1
187 186 192 194 202 190 192 185 182 186 172 164 148 140 142 140 154 156 150 127 106 87 75 67 64 61 54 48 45 40 38 36 35 35 33 28 26 22 15 9 1 348 356
188 188 188 194 195 197 194 189 189 188 177 170 163 149 143 143 139 128 117 113 102 90 81 75 71 69 65 61 57 53 51 49 44 42 36 32 29 24 20 17 10 358 354
188 189 190 193 195 197 191 189 188 185 175 163 150 139 132 127 122 116 111 104 96 90 84 78 74 71 67 61 56 52 48 44 42 40 33 30 29 22 19 18 17 16 355
184 188 193 197 197 195 187 181 179 173 160 151 141 136 131 127 121 117 113 108 101 96 92 84 75 68 62 59 56 54 51 46 41 36 30 24 22 16 12 12 12 11 4
185 189 193 191 191 186 181 175 170 164 153 148 145 142 137 131 128 125 118 113 108 103 93 83 75 70 64 59 55 51 46 38 34 29 24 20 19 16 15 13 12 8 2
189 191 192 191 186 181 174 169 164 160 156 155 150 146 142 139 137 131 124 117 112 103 92 84 77 70 66 58 49 41 37 33 30 30 29 27 23 21 20 16 12 7 3
187 190 190 188 184 177 172 169 166 165 163 159 156 153 148 146 144 137 129 124 116 107 96 87 80 68 57 47 43 41 39 38 37 36 32 30 27 25 22 17 13 8 3
190 191 189 188 183 179 174 173 171 169 167 163 162 160 156 154 149 144 138 130 120 109 96 83 71 63 54 50 50 49 48 46 43 39 36 33 32 30 25 20 15 9 5
192 194 192 188 184 181 179 177 175 173 172 170 169 168 164 161 158 152 144 137 126 109 91 76 61 53 51 53 58 57 54 50 46 42 41 37 37 35 29 22 18 12 8
197 197 194 190 187 185 182 180 179 177 175 175 175 174 171 167 162 158 154 145 133 114 95 72 55 54 58 67 67 64 58 55 53 49 45 40 38 32 29 26 22 16 9
195 194 194 192 190 187 185 183 181 180 179 180 180 179 175 172 171 169 164 158 149 132 102 70 68 69 72 76 74 71 64 60 57 51 45 40 33 25 23 20 17 12 9
197 196 196 193 191 188 186 185 184 184 184 183 184 182 180 181 181 178 173 172 167 152 126 99 92 88 92 93 83 77 69 61 54 46 39 33 27 19 15 11 9 6 2
204 201 197 192 189 190 188 187 187 188 187 187 188 188 188 188 187 185 186 187 190 197 195 160 124 122 115 107 93 82 73 60 47 39 31 24 19 10 7 4 360 358 355
207 201 197 193 192 190 190 190 191 190 190 190 192 192 193 192 193 194 197 204 210 214 207 187 172 157 130 113 98 86 67 47 34 26 18 14 9 2 359 357 353 350 348
203 201 197 195 193 192 191 193 193 193 192 193 195 196 196 196 198 202 207 213 219 217 210 201 191 173 148 123 96 75 51 28 17 7 3 3 356 354 351 349 347 345 342
199 200 196 194 195 194 194 195 195 194 194 197 199 199 199 202 206 209 213 220 224 221 213 206 201 191 181 157 105 40 9 2 356 352 350 348 347 345 343 341 340 338 337
196 196 196 194 195 196 197 197 196 196 197 200 201 202 205 209 212 215 219 226 228 226 219 213 211 212 215 224 272 313 340 342 343 341 340 339 337 336 335 334 333 335 336
196 193 195 196 195 197 198 200 199 198 201 203 205 207 212 215 217 220 224 231 233 230 223 218 220 226 233 250 277 308 323 329 330 332 332 331 330 329 330 332 333 332 333
194 194 195 197 198 197 197 197 199 202 204 205 209 213 216 219 222 225 230 235 237 234 229 227 231 236 246 261 285 304 318 321 323 326 325 325 326 327 328 328 328 329 329
194 194 197 199 200 199 199 198 200 204 207 210 213 217 221 223 227 230 234 240 242 240 237 236 242 247 253 265 281 296 305 309 314 318 321 323 323 323 324 325 325 326 326